FW6924 Weather Reports


time (UTC)temp
C
wind
direction
speed
KPH
gust
KPH
rain 1hr
cm
rain 24hr
cm
rain mn
cm
humidity
%
barometer
mb
20260507085000 20 273 0.0 0.0 0.00 0.00 0.00 92 1012.8
20260507084000 20 273 0.0 0.0 0.00 0.00 0.00 91 1012.8
20260507083004 20 273 0.0 0.0 0.00 0.00 0.00 91 1012.9
20260507082000 20 273 0.0 0.0 0.00 0.00 0.00 91 1012.8
20260507081000 20 273 0.0 0.0 0.00 0.00 0.00 91 1012.5
20260507080002 19 273 0.0 0.0 0.00 0.00 0.00 91 1012.6
20260507075002 19 273 0.0 0.0 0.00 0.00 0.00 90 1012.5
20260507074000 19 273 0.0 0.0 0.00 0.00 0.00 90 1012.6
20260507072000 20 273 0.0 0.0 0.00 0.00 0.00 90 1012.7
20260507071009 20 273 0.0 0.0 0.00 0.00 0.00 90 1012.9
20260507070012 20 273 0.0 0.0 0.00 0.00 0.00 89 1013.0
20260507065000 20 273 0.0 0.0 0.00 0.00 0.00 88 1013.1
20260507064002 20 273 0.0 0.0 0.00 0.00 0.00 88 1013.3
20260507063000 20 273 0.0 0.0 0.00 0.00 0.00 88 1013.4
20260507062020 20 273 0.0 0.0 0.00 0.00 0.00 87 1013.4
20260507061000 20 273 0.0 0.0 0.00 0.00 0.00 87 1013.5
20260507060006 20 273 0.0 0.0 0.00 0.00 0.00 86 1013.4
20260507055000 20 273 0.0 0.0 0.00 0.00 0.00 85 1013.5
20260507054002 21 273 0.0 0.0 0.00 0.00 0.00 85 1013.9
20260507053000 21 273 0.0 0.0 0.00 0.00 0.00 85 1014.0
20260507052002 21 273 0.0 0.0 0.00 0.00 0.00 84 1014.0
20260507051000 21 273 0.0 0.0 0.00 0.00 0.00 84 1014.0
20260507050006 21 273 0.0 0.0 0.00 0.00 0.00 82 1014.0
20260507045002 21 273 0.0 0.0 0.00 0.00 0.00 82 1014.2
20260507044002 21 273 0.0 0.0 0.00 0.00 0.00 83 1014.3
20260507042002 22 273 0.0 0.0 0.00 0.00 0.00 81 1014.3
20260507041002 22 273 0.0 0.0 0.00 0.00 0.00 80 1014.4
20260507040006 22 273 0.0 0.0 0.00 0.00 0.00 80 1014.4
20260507034002 22 273 0.0 0.0 0.00 0.00 0.00 78 1014.3
20260507033004 22 273 0.0 0.0 0.00 0.00 0.00 78 1014.1
20260507032002 23 273 0.0 1.6 0.00 0.00 0.00 77 1014.1
20260507030005 23 273 0.0 0.0 0.00 0.00 0.00 75 1014.2
20260507025002 23 273 0.0 0.0 0.00 0.00 0.00 73 1014.2
20260507024002 24 273 0.0 0.0 0.00 0.00 0.00 73 1014.3
20260507023002 24 273 0.0 0.0 0.00 0.00 0.00 73 1014.2
20260507022008 25 273 0.0 0.0 0.00 0.00 0.00 72 1014.2
20260507021008 25 273 0.0 0.0 0.00 0.00 0.00 73 1014.1
20260507020007 25 273 0.0 0.0 0.00 0.00 0.00 72 1014.1
20260507015002 25 273 0.0 4.8 0.00 0.00 0.00 71 1014.0
20260507014002 25 273 0.0 0.0 0.00 0.00 0.00 66 1014.0
20260507013002 26 273 0.0 1.6 0.00 0.00 0.00 64 1013.9
20260507012002 26 273 0.0 0.0 0.00 0.00 0.00 63 1013.8
20260507010004 26 273 0.0 1.6 0.00 0.00 0.00 62 1013.8
20260507004002 27 281 1.6 6.4 0.00 0.00 0.00 61 1013.8
20260507003004 27 256 1.6 6.4 0.00 0.00 0.00 59 1013.6
20260507001005 27 266 4.8 11.3 0.00 0.00 0.00 56 1013.5
20260506235005 28 250 6.4 11.3 0.00 0.00 0.00 51 1013.4
20260506234002 28 248 6.4 12.9 0.00 0.00 0.00 54 1013.4
20260506233005 28 219 6.4 12.9 0.00 0.00 0.00 52 1013.3
20260506232002 28 240 6.4 12.9 0.00 0.00 0.00 52 1013.3
20260506231011 28 221 6.4 14.5 0.00 0.00 0.00 55 1013.3
20260506230007 28 217 8.0 14.5 0.00 0.00 0.00 56 1013.3
20260506224005 29 225 6.4 14.5 0.00 0.00 0.00 55 1013.4
20260506223003 28 232 9.7 14.5 0.00 0.00 0.00 56 1013.2
20260506222004 29 257 9.7 17.7 0.00 0.00 0.00 55 1013.3
20260506220005 29 218 11.3 17.7 0.00 0.00 0.00 53 1013.3
20260506215006 29 231 12.9 20.9 0.00 0.00 0.00 56 1013.4
20260506214002 30 261 11.3 19.3 0.00 0.00 0.00 56 1013.3
20260506213005 30 230 12.9 22.5 0.00 0.00 0.00 58 1013.4
20260506212002 30 223 9.7 20.9 0.00 0.00 0.00 60 1013.4
20260506211007 30 233 11.3 17.7 0.00 0.00 0.00 63 1013.3
20260506210026 30 221 11.3 22.5 0.00 0.00 0.00 61 1013.2
20260506205002 30 200 11.3 17.7 0.00 0.00 0.00 60 1013.0
20260506204005 31 215 11.3 19.3 0.00 0.00 0.00 60 1013.1
20260506203003 31 227 9.7 19.3 0.00 0.00 0.00 59 1013.2
20260506202004 31 229 8.0 16.1 0.00 0.00 0.00 61 1013.2
20260506195002 31 240 9.7 16.1 0.00 0.00 0.00 61 1013.3
20260506193002 31 233 8.0 14.5 0.00 0.00 0.00 62 1013.6
20260506192002 31 232 8.0 14.5 0.00 0.00 0.00 59 1013.6
20260506191003 31 250 8.0 16.1 0.00 0.00 0.00 60 1013.8
20260506190004 31 228 8.0 14.5 0.00 0.00 0.00 61 1013.8
20260506185004 31 213 8.0 16.1 0.00 0.00 0.00 61 1014.0
20260506184001 31 243 8.0 16.1 0.00 0.00 0.00 60 1014.2
20260506183005 31 248 6.4 14.5 0.00 0.00 0.00 59 1014.2
20260506182001 31 238 11.3 17.7 0.00 0.00 0.00 62 1014.3
20260506181004 31 215 11.3 19.3 0.00 0.00 0.00 63 1014.3
20260506180005 31 254 6.4 17.7 0.00 0.00 0.00 63 1014.3
20260506175023 31 200 4.8 12.9 0.00 0.00 0.00 57 1014.4
20260506174001 31 192 3.2 12.9 0.00 0.00 0.00 56 1014.5
20260506173001 31 208 3.2 12.9 0.00 0.00 0.00 55 1014.6
20260506172001 31 196 3.2 11.3 0.00 0.00 0.00 53 1014.7
20260506171001 31 211 4.8 12.9 0.00 0.00 0.00 56 1014.6
20260506170003 31 196 4.8 17.7 0.00 0.00 0.00 56 1014.8
20260506164001 31 198 3.2 11.3 0.00 0.00 0.00 59 1014.9
20260506163003 30 120 6.4 14.5 0.00 0.00 0.00 61 1015.0
20260506161001 30 101 6.4 16.1 0.00 0.00 0.00 62 1015.2
20260506160006 30 134 4.8 14.5 0.00 0.00 0.00 64 1015.3
20260506155001 30 146 6.4 19.3 0.00 0.00 0.00 65 1015.5
20260506154004 28 122 3.2 9.7 0.00 0.00 0.00 69 1015.4
20260506153001 29 215 4.8 12.9 0.00 0.00 0.00 68 1015.3
20260506152003 29 128 4.8 11.3 0.00 0.00 0.00 69 1015.4
20260506151001 28 221 4.8 14.5 0.00 0.00 0.00 70 1015.3
20260506150005 28 136 4.8 14.5 0.00 0.00 0.00 69 1015.4
20260506145001 28 109 6.4 14.5 0.00 0.00 0.00 70 1015.3
20260506143001 27 121 6.4 17.7 0.00 0.00 0.00 74 1015.3
20260506141000 27 106 3.2 8.0 0.00 0.00 0.00 77 1015.3
20260506135000 26 59 3.2 8.0 0.00 0.00 0.00 79 1015.2
20260506134000 26 129 3.2 12.9 0.00 0.00 0.00 81 1015.2
20260506132000 25 101 3.2 9.7 0.00 0.00 0.00 85 1015.1
20260506131002 24 123 3.2 8.0 0.00 0.00 0.00 86 1014.9
20260506130007 23 142 4.8 11.3 0.00 0.00 0.00 88 1015.0
20260506125003 23 129 4.8 11.3 0.00 0.00 0.00 90 1015.0
20260506124000 22 123 3.2 6.4 0.00 0.00 0.00 93 1014.7
20260506123003 21 128 1.6 11.3 0.00 0.00 0.00 95 1014.7
20260506122001 21 129 3.2 8.0 0.00 0.00 0.00 95 1014.5
20260506121003 20 144 1.6 8.0 0.00 0.00 0.00 95 1014.6
20260506120003 20 161 1.6 8.0 0.00 0.00 0.00 95 1014.5
20260506115001 20 281 0.0 1.6 0.00 0.00 0.00 95 1014.5
20260506114000 19 281 0.0 0.0 0.00 0.00 0.00 95 1014.5
20260506113000 19 281 0.0 1.6 0.00 0.00 0.00 94 1014.4
20260506110005 18 103 0.0 0.0 0.00 0.00 0.00 94 1013.9
20260506105000 18 103 0.0 0.0 0.00 0.00 0.00 94 1014.1
20260506104003 19 103 0.0 0.0 0.00 0.00 0.00 94 1013.8
20260506103000 19 103 0.0 0.0 0.00 0.00 0.00 93 1013.8
20260506102002 19 103 0.0 0.0 0.00 0.00 0.00 94 1013.4
20260506101000 19 103 0.0 0.0 0.00 0.00 0.00 93 1013.6
20260506095001 19 103 0.0 0.0 0.00 0.00 0.00 93 1013.6
20260506093001 19 103 0.0 0.0 0.00 0.00 0.00 92 1013.5
20260506092000 19 103 0.0 0.0 0.00 0.00 0.00 93 1013.6
20260506091000 20 103 0.0 0.0 0.00 0.00 0.00 93 1013.5